Powrót do katalogu

THORAD AGENA D DEB

AktywnyLEO
NORAD 5736·DEBRIS·🇺🇸 United States

Wystrzelony Apr 8, 1970 z Vandenberg Space Force Base

Loading…

Następne Przeloty (najbliższe 24 godziny)

TLE

ŚwieżeSource: Space-Track

Epoka: Sep 13, 2026, 23:14 UTC

1  5736U 70025MH  26256.96811470  .00000333  00000-0  90029-3 0  9994
2  5736 101.4366 256.1415 0226844  46.4540 343.5630 13.15032158704742

Śledź THORAD AGENA D DEB w czasie rzeczywistym z AllMySat

Download on the App Store